Regional Weather Roundup
Issued by NWS

Home | Current Version | Previous Version | Text Only | Print | Product List | Glossary Off
Versions: 1 2 3 4 5 6 7 8 9 10 11 12 13 14 15 16 17 18 19 20 21 22 23 24 25 26 27 28 29 30 31 32 33 34 35 36 37 38 39 40 41 42 43 44 45 46 47 48 49 50

000
ASUS45 KCYS 202210
RWRWY

WYOMING REGIONAL WEATHER ROUNDUP
NATIONAL WEATHER SERVICE CHEYENNE WY
400 PM MDT MON OCT 20 2014

NOTE:  "FAIR" INDICATES FEW OR NO CLOUDS BELOW 12,000 FEET
WITH NO SIGNIFICANT WEATHER AND/OR OBSTRUCTIONS TO VISIBILITY.

WYZ001-202300-
YELLOWSTONE NATIONAL PARK

CITY           SKY/WX    TMP DP  RH WIND       PRES   REMARKS
LK YELLOWSTONE   N/A     61  31  32 VRB3      30.14F
W YELLOWSTONE  NOT AVBL

$$
WYZ002>013-054>058-071-098>099-202300-
NORTHERN WYOMING

CITY           SKY/WX    TMP DP  RH WIND       PRES   REMARKS
JACKSON        SUNNY     68  28  22 S7        30.06F
CODY           SUNNY    N/A N/A N/A SE14      29.93F
GREYBULL       SUNNY     77  26  15 S7        29.90F
WORLAND        SUNNY     77  32  19 N3        29.91F
SHERIDAN       SUNNY     78  30  17 NW5       29.89F
BUFFALO        SUNNY     79  14   8 SE5       29.95S
GILLETTE       SUNNY     79  26  14 S10       29.92S
HULETT         FAIR      77  34  20 SW9       29.95
NEWCASTLE      FAIR      73  32  21 SE12      29.97

$$
WYZ014>020-022>026-101>103-202300-
CENTRAL WYOMING

CITY           SKY/WX    TMP DP  RH WIND       PRES   REMARKS
BIG PINEY      CLOUDY    67  28  23 N6        30.11F
PINEDALE       MOCLDY    63  30  29 SW5       30.13S
DUBOIS         FAIR      63  27  25 W6        30.09S
LANDER         SUNNY     70  29  21 CALM      29.99F
RIVERTON       SUNNY     69  27  20 E7        30.00F
CASPER         SUNNY     75  30  19 SW14G23   30.01F
DOUGLAS        SUNNY     79  34  19 VRB7      30.00F

$$
WYZ021-027>030-104>119-202300-
SOUTHERN WYOMING

CITY           SKY/WX    TMP DP  RH WIND       PRES   REMARKS
EVANSTON       CLOUDY    66  31  27 W18G24    30.11F
KEMMERER       MOCLDY    64  27  24 SW15G24   30.13S
FORT BRIDGER   FAIR      67  31  26 SW6       30.15S
ROCK SPRINGS   SUNNY     68  28  22 NW12      30.11F
DIXON          FAIR      70  34  26 SW8       30.16S
RAWLINS        SUNNY     68  30  24 SW16G25   30.13S
SARATOGA       FAIR      68  32  26 SW15G21   30.15S
LARAMIE        MOSUNNY   67  31  26 W5        30.14S
CHEYENNE       SUNNY     70  34  26 S13       30.12S
TORRINGTON     SUNNY     81  35  19 S17G24    29.97S
PINE BLUFFS    FAIR      73  34  23 S12G17    30.07S

$$



USA.gov is the U.S. government's official web portal to all federal, state and local government web resources and services.